#timestamp,LO_Frequency,Hit,StdDev 
1457578815.3,286047000.4,N
1457578835.1,286047001.0,N
1457578836.0,286047001.0,N
1457578855.8,286047002.5,N
1457578875.6,286046999.8,N
1457578895.5,286047000.0,N
1457578915.3,286046999.8,N
1457578935.1,286047004.1,N
1457578955.9,286047002.6,N
1457578975.7,286047001.0,N
1457578995.5,286046999.0,N
1457579015.4,286046999.6,N
1457579035.2,286047000.5,N
1457579055.0,286047000.6,N
1457579055.9,286047000.6,N
1457579075.8,286047000.2,N
1457579095.6,286047000.9,N
1457579115.4,286046996.5,N
1457579135.3,286047000.5,N
1457579155.1,286046998.5,N
1457579156.0,286046998.5,N
1457579175.8,286046997.7,N
1457579195.7,286046996.3,N
1457579215.5,286046991.9,Y
1457579235.3,286046992.4,P
1457579255.2,286046992.2,N
1457579275.9,286046988.5,N
1457579295.7,286046988.7,N
1457579315.5,286046987.7,N
1457579335.4,286046988.1,N
1457579355.2,286046988.3,N
1457579375.0,286046985.3,Y
1457579376.0,286046985.3,P
1457579395.8,286046995.9,N
1457579415.6,286047000.1,N
1457579435.4,286046999.1,N
1457579455.3,286046997.7,N
1457579475.1,286046997.1,N
1457579495.8,286046993.5,N
1457579515.7,286046991.9,N
1457579535.5,286046988.5,N
1457579555.3,286046990.5,N
1457579575.2,286046990.8,N
1457579595.9,286046990.4,N
1457579615.7,286046994.2,N
1457579635.5,286046992.8,N
1457579655.4,286046987.9,Y
1457579675.2,286046990.6,P
1457579695.0,286046991.9,P
1457579696.0,286046991.9,P
1457579715.8,286047000.7,N
1457579735.6,286047004.0,N
1457579755.4,286047005.8,N
1457579775.3,286047004.7,N
1457579795.1,286047005.8,N
1457579815.8,286047004.1,N
1457579835.7,286047002.9,N
1457579855.5,286047007.3,N
1457579875.3,286047005.1,N
1457579895.2,286047004.4,N
1457579915.9,286047003.8,N
1457579935.7,286047001.8,N
1457579955.6,286047004.3,N
1457579975.4,286047005.7,N
1457579995.2,286047007.0,N
1457580015.1,286047005.8,N
1457580016.0,286047005.8,N
1457580035.8,286047004.8,N
1457580055.6,286047004.8,N
1457580075.4,286047003.4,N
1457580095.3,286047005.5,N
1457580115.1,286047007.1,N
1457580135.8,286047004.1,N
1457580155.7,286047001.5,N
1457580175.5,286047002.3,N
1457580195.3,286046998.2,N
1457580215.2,286046998.6,N
1457580235.9,286047000.6,N
1457580255.7,286047000.5,N
1457580275.6,286046998.8,N
1457580295.4,286047000.6,N
1457580315.2,286047002.5,N
1457580335.1,286047001.5,N
1457580336.0,286047001.5,N
1457580355.8,286047003.9,N
1457580375.6,286047005.8,N
1457580395.5,286047007.0,N
1457580415.3,286047008.0,Y
1457580435.1,286047006.9,P
1457580455.9,286047004.9,N
1457580475.7,286047006.0,P
1457580495.5,286047005.9,Y
1457580515.4,286047001.2,P
1457580535.2,286046998.8,N
1457580555.0,286046999.9,N
1457580555.9,286046999.9,N
1457580575.8,286047000.7,N
1457580595.6,286047001.4,N
1457580615.4,286047003.7,N
1457580635.2,286047005.5,N
1457580655.1,286047005.2,N
1457580656.0,286047005.2,N
1457580675.8,286047006.2,N
1457580695.6,286047007.7,N
1457580715.5,286047010.6,Y
1457580735.3,286047008.3,P
1457580755.1,286047006.5,N
1457580775.9,286047010.3,P
1457580795.7,286047012.1,Y
1457580815.5,286047005.2,P
1457580835.4,286047002.9,P
1457580855.2,286047007.0,P
1457580875.0,286047010.3,Y
1457580876.0,286047010.3,P
1457580895.8,286047003.1,N
1457580915.6,286047005.3,N
1457580935.4,286047005.4,N
1457580955.3,286047001.7,N
1457580975.1,286047003.0,N
1457580995.8,286047005.3,N
1457581015.7,286047005.4,N
1457581035.5,286047006.9,N
1457581055.3,286047008.8,Y
1457581075.2,286047001.8,P
1457581095.9,286047002.0,N
1457581115.7,286046999.8,N
1457581135.6,286047002.1,N
1457581155.4,286046999.8,N
1457581175.2,286047002.3,N
1457581195.1,286047002.7,N
1457581196.0,286047002.7,N
1457581215.8,286047001.9,N
1457581235.6,286047000.5,N
1457581255.4,286047001.9,N
1457581275.3,286047000.2,N
1457581295.1,286046996.6,N
1457581315.8,286046995.5,N
1457581335.7,286046993.7,N
1457581355.5,286046995.0,N
1457581375.3,286046990.2,Y
1457581395.2,286046988.8,P
1457581415.0,286046989.5,N
1457581415.9,286046989.5,N
1457581435.7,286046989.1,N
1457581455.6,286046989.3,N
1457581475.4,286046987.8,N
1457581495.2,286046989.3,N
1457581515.1,286046983.9,Y
1457581516.0,286046983.9,P
1457581535.8,286046990.5,N
1457581555.6,286046989.4,P
1457581575.5,286046989.3,Y
1457581595.3,286047000.5,P
1457581615.1,286046998.3,N
1457581635.9,286046999.3,N
1457581655.7,286046999.5,N
1457581675.5,286046999.4,N
1457581695.4,286047000.5,N
1457581715.2,286047000.3,N
1457581735.0,286047002.0,N
1457581735.9,286047002.0,N
1457581755.8,286046999.3,N
1457581775.6,286046996.6,N
1457581795.4,286047000.2,N
1457581815.3,286047001.0,N
1457581835.1,286046999.7,N
1457581836.0,286046999.7,N
1457581855.8,286046999.3,N
1457581875.6,286046998.4,N
1457581895.5,286046998.3,N
1457581915.3,286047000.3,N
1457581935.1,286046998.6,N
1457581955.9,286046999.8,N
1457581975.7,286046994.9,N
1457581995.5,286046998.8,N
1457582015.4,286046998.5,N
1457582035.2,286046999.3,N
1457582055.0,286046999.7,N
1457582055.9,286046999.7,N
1457582075.8,286047002.2,N
1457582095.6,286047000.3,N
1457582115.4,286047000.8,N
1457582135.3,286047001.0,N
1457582155.1,286047001.0,N
1457582156.0,286047001.0,N
1457582175.8,286047000.6,N
1457582195.7,286047000.5,N
1457582215.5,286047000.6,N
1457582235.3,286046998.8,N
1457582255.1,286047000.8,N
1457582275.9,286047000.1,N
1457582295.7,286047003.0,N
1457582315.5,286046999.9,N
1457582335.4,286046999.7,N
1457582355.2,286047000.1,N
1457582375.0,286046998.4,N
1457582375.9,286046998.4,N
1457582395.8,286047001.2,N
